Home > Weather > Medford > Past weeks

Flag for U.S.A. Weather for the Past 2 Weeks in Medford, Oregon, U.S.A.

Now
53 °F

Partly sunny.


Feels Like: 53 °F
Forecast: 44 / 65 °F
Wind: No wind

Location: Rogue Valley International Airport

Current Time: Feb 11, 2016 at 12:04:58 PM

Latest Report: Feb 11, 2016 at 10:53 AM


Visibility: 10 mi

Pressure: 30.16 "Hg

Humidity: 69%

Dew point: 43 °F

Location of MedfordLocation

Historic Weather in Medford — Graph

°F

Medford Temperature Yesterday

Maximum temperature yesterday: 61 °F (at 3:53 PM)
Minimum temperature yesterday: 37 °F (at 5:53 AM)
Average temperature yesterday: 49 °F

High & Low Weather Summary for the Past Weeks

 TemperatureHumidityPressure
High78 °F (Feb 8, 2:53 PM)100% (Feb 4, 2:53 AM)30.54 "Hg (Feb 4, 2:53 AM)
Low29 °F (Feb 5, 6:53 AM)22% (Feb 8, 3:53 PM)29.84 "Hg (Jan 29, 6:53 AM)
Average45 °F78%30.24 "Hg
* Reported Jan 27 10:53 AM — Feb 11 10:53 AM, Medford, Weather by CustomWeather, © 2016

Note: Actual official high and low records may vary slightly from our data, if they occured in-between our weather recording intervals... More about our weather records

Advertising

Medford Weather History for the Previous 24 Hours

 ConditionsComfort  
Time TempWeatherWind HumidityBarometerVisibility
10:53 AM
Thu, Feb 11
53 °FPartly sunny.No wind69%30.16 "Hg10 mi
9:53 AM50 °FPassing clouds.No wind77%30.18 "Hg10 mi
8:53 AM48 °FBroken clouds.No wind86%30.18 "Hg10 mi
7:53 AM47 °FBroken clouds.No wind86%30.18 "Hg10 mi
6:53 AM47 °FPassing clouds.No wind86%30.18 "Hg10 mi
5:53 AM47 °FPassing clouds.No wind86%30.17 "Hg10 mi
4:53 AM46 °FPartly cloudy.No wind89%30.17 "Hg9 mi
3:53 AM46 °FLight rain. Passing clouds.No wind86%30.18 "Hg10 mi
2:53 AM46 °FPassing clouds.3 mph86%30.17 "Hg10 mi
1:53 AM47 °FClear.3 mph83%30.18 "Hg10 mi
12:53 AM48 °FClear.No wind83%30.19 "Hg10 mi
11:53 PM
Wed, Feb 10
50 °FClear.3 mph77%30.20 "Hg10 mi
10:53 PM50 °FClear.3 mph80%30.22 "Hg10 mi
9:53 PM51 °FClear.No wind77%30.23 "Hg10 mi
8:53 PM52 °FClear.No wind75%30.23 "Hg10 mi
7:53 PM54 °FClear.No wind69%30.24 "Hg10 mi
6:53 PM55 °FClear.5 mph64%30.24 "Hg10 mi
5:53 PM57 °FClear.No wind58%30.26 "Hg10 mi
4:53 PM59 °FPassing clouds.No wind54%30.27 "Hg10 mi
3:53 PM61 °FScattered clouds.No wind46%30.26 "Hg10 mi
2:53 PM59 °FSunny.No wind51%30.27 "Hg10 mi
1:53 PM59 °FSunny.No wind48%30.29 "Hg10 mi
12:53 PM55 °FScattered clouds.No wind53%30.31 "Hg10 mi
Weather by CustomWeather, © 2016

See weather overviewHow to use our weather pages